RH
74 67 65 63 65 66 64 66 71 70 72 69 69 71 72 77 78 83 85 79 85 83
79 67 64 66 69 72 69 61 70 69 68 68 70 73 73 79 75 78 84 81 81 85
80 69 62 62 68 68 68 60 62 64 65 71 68 70 73 76 74 74 80 78 79 81
75 64 61 59 66 63 62 57 59 63 66 67 70 68 72 72 72 76 76 79 78 78
71 65 65 61 58 60 59 59 62 62 64 67 68 72 74 71 72 76 79 80 83 85
70 66 62 57 56 58 60 60 57 60 64 67 72 72 73 73 79 77 80 83 85 86
67 62 64 63 62 65 62 59 59 62 67 72 68 68 71 72 78 77 78 84 84 88
58 59 66 68 67 65 59 57 58 66 68 70 70 64 75 74 78 77 82 85 78 84
61 62 66 68 69 67 62 62 63 66 70 69 63 89 85 80 78 76 82 84 85 84
63 66 68 66 64 62 63 65 67 69 72 80 87 87 81 78 75 82 87 86 88 86
61 64 63 64 66 68 68 72 72 78 84 89 86 85 78 79 81 87 86 85 84 86
61 62 66 73 75 71 72 75 82 88 90 90 86 84 81 80 83 81 85 83 85 88
64 64 69 74 78 74 77 86 87 87 88 88 86 86 80 76 85 90 96 88 89 89
64 68 73 76 80 86 88 85 90 90 92 86 85 82 74 75 86 95 97 98 98 98
Wind_Speed
18 11 11 13 11 9 9 8 8 9 8 8 8 7 6 4 3 4 3 3 2 0
16 16 14 13 12 9 8 9 10 10 9 8 8 7 7 4 3 3 3 3 2 1
15 16 15 15 14 12 11 11 11 11 10 9 8 7 6 4 4 5 2 2 2 2
15 17 16 15 13 15 14 14 13 12 10 10 8 7 6 5 5 6 4 3 5 5
13 16 15 14 16 15 14 13 13 11 10 9 9 7 7 6 5 6 5 5 7 7
15 14 15 17 17 16 16 12 12 12 10 9 9 9 7 7 7 6 5 6 6 6
15 14 15 13 16 14 13 14 11 10 9 12 8 8 9 8 7 5 5 6 6 6
14 15 15 14 15 13 12 11 12 11 10 8 10 7 9 8 6 5 6 6 5 4
15 15 15 13 15 15 13 13 12 11 11 10 7 12 12 8 5 5 5 4 1 0
16 17 15 14 13 12 12 12 12 10 11 10 10 13 12 9 4 4 3 3 1 1
17 17 16 16 13 10 9 11 11 10 11 11 8 12 12 9 5 3 6 5 3 3
19 19 18 16 14 10 10 9 8 10 12 11 9 12 11 7 5 5 5 5 4 3
18 19 18 17 14 11 10 9 8 9 9 13 9 10 10 7 4 5 3 2 2 4
17 19 17 16 12 11 11 10 9 8 8 9 9 8 11 9 4 4 2 1 1 1
Wind_Direction
157 156 166 168 165 166 162 154 150 138 129 127 122 116 118 114 119 106 116 99 90 144
174 154 166 163 165 161 150 153 144 137 130 132 124 126 127 124 123 104 97 100 56 99
168 154 163 160 162 162 155 148 144 137 134 129 128 126 123 119 117 114 115 113 64 33
161 150 164 163 156 156 147 149 142 138 138 133 129 129 121 132 103 105 90 57 65 36
152 152 150 154 146 150 146 146 140 135 133 134 132 131 130 121 118 96 84 56 54 43
154 161 155 155 143 146 139 142 139 132 145 135 138 129 131 118 107 99 86 75 67 53
162 164 150 157 140 139 144 135 134 139 139 131 141 125 111 108 92 85 74 78 74 72
159 152 147 149 134 136 132 134 138 143 133 127 119 121 114 100 103 101 88 77 70 69
148 147 145 144 141 140 144 138 147 136 127 123 113 107 107 118 126 104 110 110 109 264
153 146 142 139 133 144 139 139 133 135 134 118 118 128 123 127 118 113 153 145 114 19
153 146 142 138 137 131 133 140 138 146 135 123 145 139 134 125 119 121 102 94 72 49
154 147 140 138 136 141 139 136 145 142 130 144 136 148 136 123 120 102 87 65 32 36
153 145 144 138 138 142 146 143 141 139 142 131 140 144 136 132 114 109 93 46 4 10
149 140 136 129 131 130 135 137 143 136 121 136 150 148 134 126 120 130 129 169 261 308